[[{"header":{"parameterUnit":"m.s-1","parameterCategory":1,"la1":30.2991,"la2":30.254,"lo1":-89.0895,"lo2":-89.0444,"dy":0.0017,"dx":0.0017,"nx":28,"ny":28,"refTime":"2023-10-12T03:00:00:Z","depth":0,"parameterNumber":2,"parameterNumberName":"U-component_of_WINDS"},"data":[0,0,0,0,0,0,0,0,0,0,0,0,0,0,0,0,0,0,0,0,0,0,0,0,0,0,0,0,0,0,0,0,0,0,0,0,0,0,0,0,0,0,0,0,0,0,0,0,0,0,0,0,0,0,0,0,0,0,-0.8286,-0.8287,0,-0.8424,-0.8425,-0.8427,-0.8459,-0.8458,-0.8457,-0.8456,-0.8596,-0.8601,-0.8605,0,0,0,0,0,0,0,0,0,0,0,0,0,-0.8048,-0.8053,-0.8286,-0.8287,-0.8289,-0.8423,-0.8425,-0.8427,-0.8459,-0.8458,-0.8457,-0.8455,-0.8595,-0.86,-0.8606,0,0,0,0,0,0,0,0,0,0,0,0,0,-0.8165,-0.8054,-0.8285,-0.8321,-0.8326,-0.8423,-0.8425,-0.8428,-0.8459,-0.8458,-0.8456,-0.8455,-0.8593,-0.8599,-0.8606,-0.8678,0,0,-0.8627,-0.863,0,0,0,0,0,0,0,0,-0.8159,-0.8174,-0.8314,-0.8319,-0.8324,-0.8423,-0.8393,-0.8511,-0.8459,-0.8408,-0.8456,-0.8454,-0.8539,-0.8551,-0.858,-0.8684,-0.869,-0.8628,-0.8632,-0.8635,-0.8637,0,0,0,0,0,0,0,-0.815,-0.8168,-0.834,-0.8316,-0.8322,-0.833,-0.8345,-0.8416,-0.848,-0.8413,-0.8415,-0.8431,-0.8542,-0.8573,-0.8583,-0.8692,-0.8628,-0.8634,-0.8638,-0.8641,-0.8862,-0.8864,0,0,0,0,0,0,-0.8136,-0.8161,-0.8336,-0.8344,-0.8236,-0.8335,-0.8352,-0.8392,-0.848,-0.8491,-0.8432,-0.8432,-0.8562,-0.8575,-0.8588,-0.8678,-0.8635,-0.8642,-0.8646,-0.886,-0.8863,-0.8864,0,0,0,0,0,0,-0.8131,-0.8152,-0.833,-0.8254,-0.8277,-0.8341,-0.8386,-0.8396,-0.8427,-0.8494,-0.8506,-0.8452,-0.8561,-0.8578,-0.8655,-0.8683,-0.8645,-0.8651,-0.8858,-0.8861,-0.8863,-0.8857,0,0,0,0,0,0,-0.8124,-0.815,-0.8178,-0.8254,-0.8281,-0.8396,-0.8388,-0.84,-0.8439,-0.844,-0.8516,-0.8527,-0.8561,-0.8645,-0.8662,-0.8692,-0.8657,-0.8856,-0.886,-0.8863,-0.8855,-0.8859,-0.8863,0,0,0,0,0,-0.8116,-0.817,-0.8179,-0.82,-0.8317,-0.8397,-0.8412,-0.8451,-0.8441,-0.847,-0.8513,-0.8525,-0.8677,-0.8652,-0.8672,-0.8705,-0.8855,-0.8859,-0.8862,-0.8854,-0.8859,-0.8863,0,0,0,0,0,0,-0.8095,-0.8181,-0.8192,-0.8272,-0.8327,-0.8402,-0.844,-0.8455,-0.8513,-0.8512,-0.8556,-0.8573,-0.8647,-0.8683,-0.8654,-0.8778,-0.8765,-0.8773,-0.8752,-0.8757,-0.8761,-0.8751,-0.8662,0,0,0,0,0,-0.81,-0.8158,-0.8229,-0.8294,-0.8321,-0.8375,-0.8411,-0.8436,-0.8495,-0.8518,-0.8567,-0.8623,-0.8683,-0.8722,-0.8781,-0.886,-0.8877,-0.8892,-0.8896,-0.8899,-0.8905,-0.895,-0.8958,-0.8877,-0.8877,-0.8877,0,0,-0.8111,-0.8165,-0.8198,-0.8291,-0.8337,-0.8395,-0.8395,-0.8457,-0.8501,-0.8527,-0.8603,-0.8641,-0.8706,-0.8784,-0.8821,-0.8817,-0.8931,-0.8904,-0.8905,-0.8911,-0.8955,-0.8962,-0.8969,-0.888,-0.8879,-0.8879,0,0,-0.8161,-0.8207,-0.8266,-0.8312,-0.838,-0.8416,-0.843,-0.8503,-0.8529,-0.8606,-0.8627,-0.868,-0.8783,-0.8829,-0.8865,-0.8932,-0.8945,-0.895,-0.897,-0.9013,-0.9019,-0.9025,-0.9049,-0.9057,-0.8956,-0.8956,-0.8956,0,-0.8165,-0.8255,-0.8294,-0.8356,-0.8396,-0.8423,-0.8483,-0.8525,-0.8609,-0.8636,-0.863,-0.876,-0.8805,-0.8895,-0.8911,-0.894,-0.8957,-0.8942,-0.9015,-0.9021,-0.9027,-0.9051,-0.906,-0.8956,-0.8956,-0.8956,-0.8956,0,-0.8258,-0.8319,-0.8359,-0.844,-0.8485,-0.8545,-0.8593,-0.8633,-0.8654,-0.869,-0.8768,-0.8823,-0.8894,-0.8917,-0.8938,-0.901,-0.9005,-0.9006,-0.8995,-0.9034,-0.9057,-0.9067,-0.8956,-0.8956,-0.8956,-0.8956,0,0,-0.83,-0.8402,-0.8416,-0.8453,-0.853,-0.8579,-0.864,-0.871,-0.8744,-0.88,-0.8853,-0.8939,-0.8941,-0.8983,-0.9008,-0.9046,-0.9095,-0.9043,-0.9045,-0.9051,-0.9179,-0.9178,-0.9188,-0.9104,-0.9106,-0.9107,-0.9173,0,-0.836,-0.8471,-0.8508,-0.86,-0.8657,-0.8683,-0.8737,-0.879,-0.8825,-0.8878,-0.8917,-0.8978,-0.8975,-0.9,-0.9039,-0.9081,-0.9122,-0.9077,-0.9154,-0.9156,-0.9138,-0.92,-0.9199,-0.9259,-0.9182,-0.9184,-0.9185,0,-0.8445,-0.8504,-0.8602,-0.8672,-0.8698,-0.8745,-0.8812,-0.8863,-0.8923,-0.8946,-0.8992,-0.9015,-0.908,-0.9063,-0.9153,-0.9121,-0.9155,-0.918,-0.9183,-0.9193,-0.9174,-0.9211,-0.9279,-0.9288,-0.92,-0.9198,-0.9197,0,-0.8466,-0.857,-0.8642,-0.8673,-0.8757,-0.879,-0.8826,-0.8885,-0.8924,-0.8983,-0.9009,-0.9073,-0.9109,-0.9158,-0.9197,-0.9182,-0.9283,-0.927,-0.9304,-0.9303,-0.9326,-0.9324,-0.94,-0.9345,-0.9345,-0.9345,-0.9345,0,-0.853,-0.8589,-0.8653,-0.8697,-0.8764,-0.8806,-0.8871,-0.8908,-0.896,-0.9012,-0.9038,-0.9086,-0.9134,-0.9189,-0.9219,-0.9289,-0.9305,-0.9325,-0.9333,-0.9323,-0.9321,-0.9346,-0.9344,-0.9347,-0.9347,-0.9346,-0.9346,0,-0.8566,-0.8611,-0.8692,-0.8764,-0.8784,-0.883,-0.8892,-0.8936,-0.8972,-0.9037,-0.9055,-0.9111,-0.9176,-0.922,-0.9303,-0.9324,-0.9399,-0.9406,-0.9379,-0.9383,-0.9415,-0.9412,-0.9511,-0.9526,-0.9461,-0.9461,-0.9462,0,-0.8604,-0.8651,-0.8728,-0.8765,-0.8802,-0.8861,-0.8901,-0.8943,-0.8985,-0.9057,-0.9092,-0.9159,-0.9215,-0.9317,-0.9365,-0.9429,-0.9437,-0.9468,-0.9447,-0.9436,-0.9439,-0.9436,-0.9441,-0.9471,-0.9472,-0.9472,-0.9473,0,-0.8668,-0.8688,-0.8746,-0.8812,-0.8859,-0.8913,-0.8967,-0.8995,-0.9047,-0.9092,-0.9159,-0.9202,-0.9287,-0.9353,-0.9421,-0.9458,-0.9474,-0.9478,-0.949,-0.9481,-0.9464,-0.9475,-0.9389,-0.9476,-0.9476,-0.9476,-0.9475,-0.9475,-0.8707,-0.8749,-0.8811,-0.8874,-0.8919,-0.8969,-0.9014,-0.9055,-0.9112,-0.9185,-0.9206,-0.9276,-0.9335,-0.9428,-0.9466,-0.9521,-0.9518,-0.9534,-0.9538,-0.9542,-0.9542,-0.9455,-0.9533,-0.9533,-0.9533,-0.9533,-0.9533,0,-0.8772,-0.8813,-0.8871,-0.8946,-0.8995,-0.9006,-0.9066,-0.9107,-0.9169,-0.9222,-0.9277,-0.9354,-0.9418,-0.9471,-0.9536,-0.957,-0.9579,-0.9586,-0.9585,-0.9593,-0.9541,-0.9525,-0.9578,-0.9578,-0.9578,-0.9578,-0.9578,-0.9578,-0.8812,-0.8884,-0.8911,-0.9006,-0.9046,-0.9116,-0.9149,-0.9195,-0.9238,-0.9323,-0.9376,-0.941,-0.9464,-0.9534,-0.9593,-0.9607,-0.963,-0.9635,-0.9651,-0.9601,-0.9596,-0.9592,-0.9577,-0.964,-0.964,-0.9698,-0.9699,-0.9699]},{"header":{"parameterUnit":"m.s-1","parameterCategory":1,"la1":30.2991,"la2":30.254,"lo1":-89.0895,"lo2":-89.0444,"dy":0.0017,"dx":0.0017,"nx":28,"ny":28,"refTime":"2023-10-12T03:00:00:Z","depth":0,"parameterNumber":3,"parameterNumberName":"V-component_of_WINDS"},"data":[0,0,0,0,0,0,0,0,0,0,0,0,0,0,0,0,0,0,0,0,0,0,0,0,0,0,0,0,0,0,0,0,0,0,0,0,0,0,0,0,0,0,0,0,0,0,0,0,0,0,0,0,0,0,0,0,0,0,-6.5737,-6.5739,0,-6.5848,-6.585,-6.5851,-6.5792,-6.5789,-6.5786,-6.5783,-6.589,-6.5895,-6.5901,0,0,0,0,0,0,0,0,0,0,0,0,0,-6.5467,-6.5472,-6.5737,-6.5739,-6.574,-6.5848,-6.585,-6.5851,-6.5793,-6.5789,-6.5785,-6.5782,-6.5888,-6.5895,-6.5902,0,0,0,0,0,0,0,0,0,0,0,0,0,-6.5582,-6.5474,-6.5737,-6.5724,-6.5724,-6.5848,-6.585,-6.5852,-6.5793,-6.5789,-6.5784,-6.578,-6.5886,-6.5894,-6.5902,-6.6043,0,0,-6.5928,-6.5932,0,0,0,0,0,0,0,0,-6.5575,-6.5592,-6.5725,-6.5725,-6.5725,-6.5802,-6.5793,-6.5916,-6.5794,-6.5767,-6.5783,-6.5778,-6.5864,-6.5874,-6.5904,-6.6048,-6.6053,-6.5929,-6.5934,-6.5938,-6.594,0,0,0,0,0,0,0,-6.5567,-6.5586,-6.5781,-6.5726,-6.5727,-6.571,-6.5722,-6.5816,-6.5839,-6.5769,-6.5765,-6.5779,-6.5863,-6.5896,-6.5906,-6.6055,-6.5929,-6.5936,-6.5941,-6.5945,-6.6319,-6.6323,0,0,0,0,0,0,-6.5561,-6.558,-6.5777,-6.5784,-6.5638,-6.5719,-6.5731,-6.5782,-6.5838,-6.5842,-6.5783,-6.5776,-6.5884,-6.5897,-6.591,-6.6078,-6.5938,-6.5945,-6.595,-6.6314,-6.632,-6.6325,0,0,0,0,0,0,-6.5555,-6.5579,-6.5773,-6.5681,-6.5705,-6.5728,-6.5785,-6.5786,-6.5819,-6.5848,-6.5851,-6.5813,-6.5881,-6.5898,-6.6011,-6.6081,-6.5949,-6.5957,-6.6308,-6.6316,-6.6323,-6.6417,0,0,0,0,0,0,-6.5548,-6.5578,-6.5633,-6.5683,-6.571,-6.5875,-6.5789,-6.5792,-6.5835,-6.5827,-6.5877,-6.5881,-6.5879,-6.5999,-6.6019,-6.609,-6.5963,-6.6302,-6.6312,-6.632,-6.6407,-6.6426,-6.6443,0,0,0,0,0,-6.5539,-6.5654,-6.5636,-6.566,-6.578,-6.5879,-6.5894,-6.5891,-6.5841,-6.5896,-6.5914,-6.588,-6.607,-6.6011,-6.6033,-6.6108,-6.6298,-6.6309,-6.632,-6.64,-6.6423,-6.6442,0,0,0,0,0,0,-6.5609,-6.566,-6.5641,-6.5777,-6.5825,-6.5869,-6.5938,-6.5915,-6.5976,-6.5966,-6.5957,-6.5969,-6.6087,-6.6108,-6.6041,-6.6247,-6.6176,-6.6192,-6.6229,-6.6251,-6.6268,-6.626,-6.597,0,0,0,0,0,-6.5641,-6.5719,-6.5758,-6.5874,-6.5899,-6.5915,-6.5958,-6.5951,-6.5999,-6.6018,-6.6045,-6.6091,-6.616,-6.6207,-6.6273,-6.641,-6.6419,-6.6472,-6.649,-6.6504,-6.6518,-6.6591,-6.6615,-6.6361,-6.6361,-6.6361,0,0,-6.5706,-6.5744,-6.5794,-6.5889,-6.5925,-6.6005,-6.5932,-6.6019,-6.6077,-6.603,-6.614,-6.6161,-6.6211,-6.6337,-6.6393,-6.6359,-6.659,-6.6518,-6.6529,-6.6536,-6.6605,-6.6629,-6.6651,-6.6369,-6.6368,-6.6366,0,0,-6.5867,-6.5903,-6.6004,-6.6042,-6.6098,-6.6108,-6.6132,-6.6181,-6.6194,-6.6304,-6.627,-6.6338,-6.6459,-6.6496,-6.6531,-6.6705,-6.6675,-6.6726,-6.6818,-6.689,-6.691,-6.6927,-6.6989,-6.7011,-6.674,-6.674,-6.674,0,-6.594,-6.6061,-6.6057,-6.6148,-6.619,-6.6154,-6.6254,-6.629,-6.6365,-6.6394,-6.6354,-6.6505,-6.6536,-6.667,-6.6713,-6.6742,-6.6768,-6.6721,-6.6908,-6.6925,-6.6942,-6.7,-6.7024,-6.6746,-6.6745,-6.6745,-6.6744,0,-6.6149,-6.6232,-6.6306,-6.6382,-6.6432,-6.6527,-6.6536,-6.6586,-6.6575,-6.6589,-6.67,-6.6736,-6.6809,-6.684,-6.6829,-6.6972,-6.6949,-6.6909,-6.6837,-6.6972,-6.7027,-6.7049,-6.6754,-6.6752,-6.6751,-6.6749,0,0,-6.6357,-6.643,-6.6457,-6.649,-6.655,-6.6613,-6.6705,-6.6779,-6.6822,-6.6874,-6.695,-6.7053,-6.7017,-6.7056,-6.7049,-6.7112,-6.7247,-6.7064,-6.7065,-6.7096,-6.7406,-6.7436,-6.7462,-6.7228,-6.7232,-6.7235,-6.7402,0,-6.6521,-6.6685,-6.6685,-6.6835,-6.6912,-6.6878,-6.6958,-6.7002,-6.7017,-6.7082,-6.7096,-6.717,-6.7116,-6.714,-6.72,-6.7218,-6.7309,-6.7206,-6.7296,-6.73,-6.7285,-6.7491,-6.7523,-6.7679,-6.7423,-6.7427,-6.7429,0,-6.6735,-6.6796,-6.6956,-6.7004,-6.7036,-6.7108,-6.7175,-6.7239,-6.7287,-6.7293,-6.7337,-6.732,-6.7411,-6.7337,-6.7461,-6.7391,-6.7428,-6.7442,-6.7447,-6.7456,-6.7373,-6.7505,-6.7728,-6.7751,-6.7463,-6.746,-6.7458,0,-6.687,-6.6993,-6.7104,-6.7134,-6.7193,-6.7244,-6.7271,-6.7315,-6.7359,-6.7416,-6.7445,-6.7511,-6.7547,-6.7598,-6.7598,-6.7544,-6.7724,-6.765,-6.773,-6.773,-6.7769,-6.7767,-6.8002,-6.7793,-6.7793,-6.7792,-6.7792,0,-6.7054,-6.7152,-6.7166,-6.7234,-6.7343,-6.734,-6.7447,-6.7468,-6.7508,-6.7578,-6.7551,-6.7617,-6.7614,-6.768,-6.768,-6.7783,-6.7799,-6.7805,-6.7804,-6.7808,-6.7807,-6.7831,-6.7821,-6.7799,-6.7797,-6.7796,-6.7795,0,-6.7224,-6.7237,-6.7356,-6.7403,-6.7417,-6.7495,-6.7534,-6.7598,-6.761,-6.7699,-6.7719,-6.7737,-6.7814,-6.7819,-6.7906,-6.7906,-6.8031,-6.8018,-6.8016,-6.8014,-6.8093,-6.8086,-6.8352,-6.8387,-6.8156,-6.8158,-6.816,0,-6.7341,-6.7416,-6.7472,-6.7518,-6.7549,-6.7623,-6.7669,-6.7668,-6.7716,-6.7776,-6.7832,-6.7907,-6.7966,-6.8089,-6.8108,-6.8175,-6.8163,-6.8252,-6.8172,-6.8174,-6.8164,-6.816,-6.8167,-6.8267,-6.827,-6.8272,-6.8273,0,-6.7546,-6.7549,-6.7617,-6.7688,-6.7743,-6.7798,-6.7849,-6.7888,-6.7893,-6.7947,-6.8027,-6.8073,-6.8163,-6.8236,-6.8301,-6.8325,-6.83,-6.8298,-6.832,-6.8325,-6.8321,-6.8324,-6.8058,-6.8292,-6.829,-6.8289,-6.8288,-6.8287,-6.7693,-6.7758,-6.7808,-6.7884,-6.7923,-6.7972,-6.8034,-6.8055,-6.8122,-6.8197,-6.8191,-6.8279,-6.8323,-6.8408,-6.8438,-6.8504,-6.8474,-6.8506,-6.8514,-6.8522,-6.853,-6.831,-6.8516,-6.8515,-6.8515,-6.8514,-6.8514,0,-6.7897,-6.7927,-6.7998,-6.8071,-6.8131,-6.8104,-6.8159,-6.821,-6.8288,-6.8333,-6.8393,-6.8483,-6.8554,-6.8579,-6.8648,-6.8696,-6.8686,-6.8714,-6.871,-6.8716,-6.8553,-6.8528,-6.8721,-6.8721,-6.8721,-6.8721,-6.8721,-6.8721,-6.801,-6.812,-6.8128,-6.8256,-6.8285,-6.8372,-6.8406,-6.8449,-6.8486,-6.8589,-6.8648,-6.8665,-6.8702,-6.8773,-6.8836,-6.8841,-6.8867,-6.8901,-6.8901,-6.8749,-6.8728,-6.8708,-6.8683,-6.8906,-6.8907,-6.9058,-6.906,-6.9061]}]]